Wetbulb
74.99 77.23 79.79 79.81 80.00 79.94 79.92 79.68 79.41 79.22 78.62 78.38 78.12 78.00 77.68 77.72 77.72 78.50 78.75 78.45 78.42 77.92 77.52 76.95 76.53 76.06 75.95 76.29 76.34 76.80 77.17 77.39 77.33 76.93 76.84 76.80 76.62 76.98 77.03 76.12 76.62 73.78 75.26
76.62 77.62 79.87 79.70 79.71 79.63 79.72 79.94 79.81 79.59 78.76 78.66 78.27 77.66 77.45 78.14 77.37 77.80 78.27 78.08 77.43 77.19 77.12 76.89 76.56 76.79 76.20 76.59 76.98 76.94 77.48 77.74 78.04 77.17 77.08 76.70 76.18 75.89 75.31 75.28 76.91 74.22 75.21
76.62 77.60 78.45 79.50 79.79 80.08 80.07 80.10 79.84 79.58 78.85 78.57 78.53 78.12 77.56 77.67 77.61 77.08 77.90 77.66 76.98 76.70 76.28 76.25 76.25 76.50 76.42 76.42 76.99 76.44 77.28 77.81 78.05 77.39 77.53 74.56 74.40 75.50 76.11 76.16 75.88 75.59 75.22
77.75 77.50 77.68 79.47 79.84 80.32 80.24 80.39 80.02 79.56 78.24 77.98 77.68 77.98 77.61 77.37 77.17 77.37 77.34 76.92 76.89 76.43 76.34 75.84 76.01 76.17 76.14 76.61 77.25 76.79 76.84 77.26 77.60 76.79 75.72 73.87 73.81 76.28 76.41 76.23 75.96 75.67 75.40
77.97 77.64 78.21 79.87 80.11 79.96 80.05 80.02 79.89 79.56 78.99 77.99 78.01 77.82 77.70 77.35 77.10 77.16 77.17 76.01 76.23 76.23 76.27 76.39 76.31 76.17 76.39 76.63 77.16 76.96 76.69 77.68 77.10 75.84 75.15 74.12 72.97 76.30 76.46 76.30 75.80 75.61 75.88
76.15 78.39 78.95 79.75 80.01 79.67 79.71 79.78 79.65 79.44 79.24 78.24 78.29 78.26 77.86 77.58 77.19 76.72 76.37 76.45 75.64 76.39 76.38 76.19 75.80 76.22 76.47 76.76 77.11 77.33 77.13 77.20 77.20 75.79 75.16 75.56 73.99 77.12 76.42 76.10 75.75 75.40 75.55
77.03 77.90 77.88 79.72 80.18 79.77 79.56 79.66 79.55 79.60 79.33 78.72 78.77 78.06 77.76 77.65 77.48 77.38 76.72 76.50 76.49 76.01 76.15 76.34 75.64 76.70 76.17 76.93 77.03 77.48 77.17 76.96 75.37 74.35 73.62 75.22 75.28 77.33 76.05 75.95 75.66 75.55 74.95
77.98 77.85 77.55 79.74 80.17 79.96 79.04 79.45 79.59 79.77 79.40 79.39 78.97 78.49 77.81 77.78 78.03 77.98 76.85 76.50 76.37 75.95 76.25 76.12 76.39 76.60 76.21 76.67 77.19 77.25 77.21 76.54 75.20 74.08 74.81 75.11 76.36 77.17 76.31 76.22 75.92 75.66 74.38
79.12 78.25 77.78 78.07 78.58 79.10 79.08 79.27 79.70 79.77 79.56 79.32 79.06 78.84 78.33 77.65 77.44 77.34 77.26 76.50 76.56 76.37 76.31 76.25 76.45 76.59 76.48 76.52 76.94 76.96 76.84 76.56 74.61 74.43 74.99 74.65 76.62 77.23 76.50 76.15 76.15 75.75 75.03
78.06 78.94 77.89 78.24 78.18 78.15 78.08 79.36 79.39 79.52 79.41 78.93 78.67 77.79 77.24 77.38 77.43 77.20 77.94 77.71 76.89 76.48 76.23 76.26 76.74 76.81 76.94 76.83 76.49 76.54 76.31 75.83 73.84 74.00 74.51 74.30 76.91 77.52 76.11 76.07 76.01 76.05 75.68
77.21 77.88 77.80 78.06 78.59 78.96 78.35 78.05 79.04 78.79 78.42 78.02 77.35 77.94 77.98 76.25 76.20 76.31 77.08 77.91 76.65 76.54 76.41 76.25 76.49 76.57 77.15 76.20 76.45 76.46 75.77 73.06 72.52 73.71 73.76 76.19 76.66 77.26 76.46 76.76 76.56 76.42 76.03
75.08 77.32 77.01 77.14 77.23 77.77 76.75 76.80 76.99 76.08 76.84 77.22 76.82 77.10 76.40 75.90 76.70 77.01 76.70 77.11 76.36 76.36 76.43 76.71 76.73 76.52 76.34 74.69 74.72 75.21 74.07 73.17 73.27 74.24 73.77 76.28 76.30 77.22 77.17 76.93 76.57 76.22 76.10
75.43 75.08 77.09 77.54 78.01 77.09 76.42 75.86 76.92 76.10 75.70 76.32 76.07 75.24 76.67 76.14 76.57 75.45 76.81 75.50 75.79 76.61 74.90 76.19 75.96 75.15 74.20 74.49 74.31 73.45 73.29 75.21 74.29 74.62 74.51 76.78 76.55 77.20 76.86 77.05 76.51 76.30 76.18
74.78 75.56 76.75 78.05 78.12 76.87 77.50 73.44 74.68 75.45 75.53 74.59 74.70 75.74 73.59 73.00 73.54 75.74 76.19 76.03 76.16 75.74 76.32 75.54 75.23 76.01 75.19 74.17 74.08 74.36 74.99 74.98 74.46 75.39 74.89 76.34 76.83 76.98 77.27 76.89 76.38 76.37 76.32
73.96 75.54 76.43 77.79 78.66 78.04 75.56 72.27 73.69 75.25 75.17 75.48 75.16 73.75 72.68 72.46 73.89 75.54 74.88 75.38 75.61 76.30 76.92 74.93 75.05 75.06 74.94 74.38 74.94 74.10 74.34 74.36 73.87 74.47 74.10 76.01 77.09 77.00 77.06 76.97 76.38 76.00 76.37
73.94 74.91 76.73 77.44 78.94 79.80 78.57 76.40 75.46 75.50 74.29 73.54 74.74 74.82 73.79 73.99 75.94 75.64 74.78 74.46 73.99 75.69 75.21 75.64 75.01 74.73 74.03 75.11 74.39 74.51 74.26 74.68 74.79 74.81 74.18 75.02 76.22 76.89 77.41 77.21 76.63 76.26 76.12
74.42 75.32 75.71 76.70 77.35 78.26 78.75 78.29 78.08 76.48 75.70 74.09 73.66 75.14 74.07 74.43 74.74 74.47 74.13 73.77 75.17 76.11 75.39 75.49 74.86 75.05 74.07 75.01 74.37 74.52 74.46 73.98 74.95 73.65 75.31 75.76 74.41 76.61 77.53 77.49 76.80 76.31 75.88
75.03 75.43 76.27 75.53 76.60 77.67 78.18 78.23 77.56 75.97 76.69 75.59 74.37 75.20 75.19 75.26 74.76 75.49 73.89 73.16 75.39 75.70 75.11 73.93 73.57 73.34 73.18 74.13 74.21 73.77 74.06 74.31 75.06 74.56 74.51 74.03 74.45 73.97 76.34 77.15 76.79 76.02 76.21
77.03 76.78 76.82 77.42 76.47 77.09 78.05 76.96 76.96 76.75 75.84 75.00 74.89 74.18 75.65 74.99 75.02 74.39 73.75 73.33 74.73 74.96 75.24 74.98 72.59 73.10 72.30 72.92 74.13 73.85 73.78 73.80 74.46 74.04 74.80 73.77 73.87 74.14 74.26 75.47 75.51 74.76 76.06
75.95 77.20 77.58 77.49 77.93 77.77 77.27 77.24 76.94 75.06 74.65 74.69 73.57 74.78 73.85 74.33 74.04 73.97 73.71 73.72 73.46 72.33 74.20 74.61 72.73 73.01 71.77 71.63 73.21 72.44 72.70 73.03 74.81 74.17 74.32 73.74 73.99 73.59 74.00 73.54 73.01 72.90 74.59
75.45 76.61 77.04 76.45 77.64 76.92 76.48 74.08 73.60 72.19 72.73 72.95 74.46 74.90 74.88 74.00 73.46 73.37 72.97 72.70 73.70 72.70 73.02 73.55 73.55 72.05 72.15 72.45 71.93 70.07 70.25 72.68 73.34 74.06 73.81 73.39 72.67 73.87 73.67 73.06 72.33 72.45 72.21
74.96 76.30 76.90 76.59 76.61 75.99 76.43 74.94 75.23 75.14 73.09 72.40 73.51 73.52 72.94 72.25 72.70 72.97 72.54 73.15 73.62 72.13 72.62 73.52 72.37 71.53 72.02 71.74 69.40 68.98 65.92 69.43 71.56 72.69 72.87 73.01 71.99 73.61 72.85 73.10 72.07 71.57 72.36
75.04 75.45 76.45 75.54 75.88 76.08 75.01 75.40 74.94 74.51 70.80 69.73 68.83 72.09 72.44 72.08 72.11 72.45 72.62 72.83 72.34 73.40 71.83 73.01 72.65 69.99 69.85 71.47 71.55 67.79 65.12 65.67 68.81 72.37 72.27 72.60 72.24 71.98 72.76 72.26 72.46 72.47 72.10
75.25 74.98 75.47 76.66 76.95 75.97 74.35 73.18 72.61 70.44 66.77 68.61 70.10 71.65 70.59 70.83 72.03 71.86 72.15 72.66 73.57 73.30 71.92 73.23 72.69 69.89 69.75 69.37 69.73 70.91 69.89 70.92 66.50 65.81 70.51 71.97 72.46 71.84 71.54 72.27 72.49 72.83 73.03
75.01 74.68 75.48 76.39 76.14 75.29 74.02 72.77 72.70 68.30 69.30 71.09 69.70 70.71 72.20 71.27 72.22 71.77 71.88 72.29 72.90 73.05 72.09 71.70 71.91 71.77 71.00 69.14 68.17 69.00 68.95 69.92 70.48 66.72 65.32 68.11 70.46 71.86 71.88 71.71 72.41 72.57 72.99
73.90 73.89 74.73 75.51 75.47 74.76 73.21 72.85 71.59 70.40 69.74 70.02 70.28 69.62 71.12 72.04 72.17 71.86 71.46 72.28 72.85 72.92 72.00 70.78 72.27 72.48 70.50 69.61 69.19 68.45 68.04 67.04 67.56 67.26 66.09 67.41 67.49 69.87 71.60 72.10 72.22 72.33 73.27
MSLP
1007.92 1008.90 1009.85 1010.30 1010.51 1010.96 1011.43 1011.93 1012.28 1012.76 1013.03 1013.40 1013.83 1014.15 1014.40 1014.57 1014.73 1014.84 1015.07 1015.20 1015.47 1015.65 1015.62 1015.81 1015.92 1016.11 1016.28 1016.31 1016.43 1016.55 1016.67 1016.93 1017.25 1017.33 1017.56 1017.79 1018.01 1018.03 1018.12 1018.19 1018.25 1018.81 1019.17
1007.38 1008.73 1009.78 1010.23 1010.62 1011.03 1011.56 1012.03 1012.50 1012.95 1013.28 1013.70 1014.01 1014.32 1014.60 1014.84 1015.06 1015.29 1015.44 1015.53 1015.74 1015.96 1015.93 1016.01 1016.12 1016.27 1016.45 1016.53 1016.69 1016.81 1017.02 1017.08 1017.30 1017.48 1017.71 1017.96 1018.19 1018.34 1018.47 1018.48 1018.45 1019.11 1019.45
1007.61 1008.81 1009.61 1010.30 1010.79 1011.20 1011.70 1012.16 1012.68 1013.11 1013.55 1013.96 1014.18 1014.59 1014.92 1015.04 1015.28 1015.63 1015.67 1015.80 1015.96 1016.22 1016.20 1016.26 1016.37 1016.51 1016.60 1016.74 1016.78 1016.99 1017.12 1017.21 1017.38 1017.57 1017.67 1017.93 1018.30 1018.52 1018.61 1018.70 1018.90 1019.31 1019.68
1007.27 1008.72 1009.78 1010.49 1011.04 1011.40 1011.68 1012.14 1012.68 1013.28 1013.79 1014.25 1014.45 1014.69 1014.98 1015.37 1015.49 1015.65 1015.86 1016.03 1016.13 1016.29 1016.40 1016.48 1016.58 1016.75 1016.85 1016.95 1016.89 1017.17 1017.20 1017.38 1017.59 1017.85 1017.61 1017.62 1018.12 1018.71 1018.83 1019.07 1019.24 1019.52 1019.89
1006.93 1008.14 1010.00 1010.69 1011.23 1011.62 1011.87 1012.31 1012.85 1013.33 1013.86 1014.36 1014.58 1014.94 1015.18 1015.32 1015.60 1015.71 1015.80 1016.12 1016.26 1016.37 1016.50 1016.55 1016.74 1016.93 1017.05 1017.06 1017.11 1017.24 1017.35 1017.56 1017.64 1017.81 1017.56 1017.80 1018.17 1018.83 1019.10 1019.36 1019.63 1019.84 1020.00
1006.54 1008.11 1010.10 1010.96 1011.37 1011.82 1012.14 1012.38 1012.92 1013.40 1013.86 1014.30 1014.70 1014.97 1015.20 1015.36 1015.59 1015.75 1015.82 1016.13 1016.43 1016.41 1016.58 1016.67 1016.80 1017.06 1017.13 1017.15 1017.29 1017.43 1017.35 1017.71 1017.77 1017.75 1017.64 1017.89 1018.15 1018.92 1019.26 1019.45 1019.74 1020.05 1020.28
1007.50 1008.77 1010.01 1010.90 1011.46 1011.96 1012.21 1012.56 1012.98 1013.36 1013.88 1014.27 1014.61 1014.96 1015.08 1015.29 1015.46 1015.61 1015.75 1016.07 1016.28 1016.44 1016.52 1016.62 1016.93 1016.93 1017.21 1017.19 1017.30 1017.43 1017.34 1017.79 1017.96 1017.79 1017.87 1018.08 1018.67 1019.00 1019.45 1019.67 1019.92 1020.21 1020.47
1007.80 1008.95 1010.09 1010.94 1011.50 1012.01 1012.41 1012.64 1013.01 1013.38 1013.73 1014.07 1014.46 1014.69 1014.97 1015.13 1015.39 1015.42 1015.62 1015.94 1016.05 1016.39 1016.52 1016.82 1016.96 1017.00 1017.27 1017.25 1017.40 1017.44 1017.34 1017.59 1017.98 1017.99 1017.86 1018.21 1018.81 1019.06 1019.46 1019.80 1020.07 1020.32 1020.54
1007.85 1009.10 1010.06 1010.94 1011.52 1012.02 1012.43 1012.66 1012.91 1013.19 1013.59 1013.82 1014.13 1014.42 1014.63 1015.01 1015.31 1015.42 1015.60 1015.79 1015.86 1016.23 1016.41 1016.80 1016.92 1017.11 1017.30 1017.34 1017.47 1017.54 1017.40 1017.47 1017.85 1017.76 1017.65 1018.36 1018.82 1019.08 1019.46 1019.78 1020.11 1020.38 1020.60
1008.05 1008.92 1009.98 1010.84 1011.38 1011.87 1012.34 1012.59 1012.83 1013.09 1013.33 1013.61 1013.91 1014.30 1014.49 1014.67 1014.91 1015.27 1015.46 1015.82 1015.78 1016.09 1016.28 1016.55 1016.84 1017.04 1017.23 1017.37 1017.52 1017.61 1017.51 1017.64 1017.71 1017.70 1017.53 1018.27 1018.76 1019.05 1019.46 1019.78 1020.14 1020.45 1020.71
1008.68 1009.09 1009.78 1010.72 1011.12 1011.51 1011.90 1012.23 1012.56 1012.91 1013.18 1013.40 1013.82 1014.13 1014.39 1014.55 1014.82 1015.04 1015.38 1015.51 1015.76 1015.99 1016.09 1016.30 1016.69 1017.02 1017.20 1017.40 1017.63 1017.65 1017.62 1017.60 1017.19 1017.68 1017.84 1017.99 1018.68 1018.93 1019.40 1019.74 1020.07 1020.33 1020.61
1008.71 1009.38 1009.98 1010.56 1010.96 1011.16 1011.20 1011.86 1012.40 1012.64 1012.81 1013.17 1013.58 1014.01 1014.40 1014.22 1014.73 1014.83 1015.21 1015.27 1015.85 1015.83 1016.02 1016.07 1016.59 1016.88 1017.18 1017.30 1017.54 1017.68 1017.67 1017.37 1017.01 1017.39 1018.06 1017.99 1018.60 1018.88 1019.25 1019.68 1020.02 1020.24 1020.53
1008.85 1009.39 1009.91 1010.25 1010.27 1010.57 1011.66 1012.65 1013.06 1013.34 1013.10 1013.00 1013.38 1013.99 1014.33 1014.38 1014.76 1014.59 1015.05 1015.56 1015.67 1015.75 1015.72 1015.89 1016.28 1016.52 1016.72 1016.97 1017.14 1017.32 1017.37 1017.30 1016.95 1017.15 1017.69 1018.03 1018.49 1018.82 1019.19 1019.60 1019.93 1020.19 1020.43
1008.55 1009.03 1009.61 1010.02 1010.27 1010.93 1011.79 1013.21 1013.19 1012.84 1013.01 1012.54 1012.73 1013.55 1014.28 1014.61 1014.64 1014.58 1014.77 1015.11 1015.32 1015.67 1015.52 1015.68 1015.78 1016.10 1016.27 1016.62 1016.81 1016.93 1017.02 1017.09 1016.89 1016.93 1017.46 1017.82 1018.23 1018.61 1019.00 1019.52 1019.92 1020.16 1020.33
1008.04 1008.63 1009.30 1009.92 1010.16 1010.90 1012.15 1013.27 1013.50 1012.37 1012.31 1012.13 1012.01 1012.58 1013.60 1014.12 1014.33 1014.21 1014.64 1014.96 1015.16 1015.50 1015.54 1015.70 1015.77 1015.85 1016.16 1016.50 1016.61 1016.79 1016.76 1016.95 1016.78 1017.24 1016.76 1017.87 1018.00 1018.39 1018.87 1019.31 1019.77 1020.06 1020.22
1008.10 1008.75 1009.44 1010.01 1010.21 1010.58 1011.46 1012.23 1012.38 1011.86 1012.55 1013.36 1013.68 1012.42 1012.73 1013.58 1013.93 1014.19 1014.70 1014.99 1015.14 1015.24 1015.48 1015.49 1015.73 1015.77 1016.17 1016.32 1016.46 1016.60 1016.61 1016.83 1016.71 1016.51 1017.19 1017.52 1017.87 1018.36 1018.86 1019.19 1019.58 1019.83 1020.15
1008.10 1008.82 1009.57 1010.02 1010.21 1010.35 1010.70 1011.03 1010.96 1010.44 1010.97 1012.44 1013.43 1011.82 1012.33 1013.18 1013.73 1014.23 1014.72 1014.93 1014.77 1015.09 1015.32 1015.43 1015.47 1015.70 1016.03 1016.11 1016.37 1016.48 1016.63 1016.53 1016.47 1016.79 1017.06 1017.21 1017.82 1018.30 1018.74 1019.08 1019.33 1019.62 1019.83
1007.88 1008.64 1009.42 1009.75 1010.11 1010.44 1010.61 1010.63 1010.63 1010.44 1010.21 1010.55 1010.74 1010.93 1011.92 1012.74 1013.40 1013.78 1014.19 1014.44 1014.41 1014.75 1015.12 1015.46 1015.50 1015.76 1015.82 1016.08 1016.34 1016.45 1016.68 1016.46 1016.34 1016.54 1017.09 1017.31 1017.78 1018.01 1018.50 1018.80 1019.16 1019.53 1019.70
1007.83 1008.43 1009.06 1009.41 1009.95 1010.49 1010.82 1010.96 1010.93 1010.75 1010.70 1010.57 1010.52 1010.87 1011.59 1012.08 1012.75 1013.43 1013.69 1013.83 1014.06 1014.52 1014.85 1015.39 1015.50 1015.54 1015.77 1016.11 1016.42 1016.51 1016.81 1016.80 1016.62 1016.33 1016.34 1016.96 1017.44 1017.68 1018.00 1018.38 1018.81 1019.27 1019.56
1007.83 1008.57 1009.27 1009.71 1010.17 1010.69 1011.09 1011.27 1011.15 1011.03 1010.94 1010.75 1010.79 1010.96 1011.25 1011.56 1012.05 1012.89 1013.16 1013.40 1013.71 1014.42 1014.75 1015.16 1015.29 1015.28 1015.52 1016.05 1016.44 1016.64 1016.83 1016.65 1016.57 1016.65 1016.64 1016.72 1017.04 1017.11 1017.71 1018.11 1018.61 1019.20 1019.44
1007.54 1008.57 1009.37 1009.93 1010.32 1010.82 1011.11 1011.51 1011.58 1011.37 1011.37 1010.99 1010.93 1011.02 1011.23 1011.59 1011.93 1012.26 1012.98 1013.23 1013.56 1014.08 1014.42 1014.81 1014.99 1015.25 1015.66 1015.99 1016.59 1016.74 1016.81 1016.47 1016.36 1016.42 1016.48 1016.63 1016.82 1017.02 1017.35 1017.74 1018.24 1018.76 1019.22
1007.24 1008.33 1009.22 1009.79 1010.15 1010.80 1011.27 1011.46 1011.58 1011.55 1011.56 1011.46 1011.32 1011.06 1011.28 1011.69 1011.82 1012.03 1012.65 1012.91 1013.33 1013.75 1014.23 1014.45 1014.75 1015.12 1015.73 1016.07 1016.30 1016.72 1016.57 1016.51 1016.07 1015.98 1016.29 1016.51 1016.64 1016.66 1016.90 1017.53 1017.96 1018.13 1018.87
1007.49 1008.35 1008.96 1009.74 1010.29 1010.72 1011.21 1011.38 1011.53 1011.67 1011.51 1011.34 1011.38 1011.32 1011.10 1011.09 1011.61 1011.74 1012.13 1012.80 1013.03 1013.44 1013.78 1014.08 1014.37 1014.94 1015.59 1016.00 1016.14 1016.28 1016.52 1016.25 1016.15 1015.92 1016.03 1016.20 1016.37 1016.50 1016.49 1017.03 1017.39 1017.64 1017.64
1006.93 1007.80 1008.59 1009.24 1009.91 1010.54 1011.14 1011.32 1011.61 1011.74 1011.69 1011.34 1011.21 1011.17 1011.14 1011.09 1011.11 1011.34 1011.89 1012.32 1012.76 1013.05 1013.30 1013.72 1014.23 1014.71 1015.11 1015.96 1016.19 1016.18 1016.20 1016.03 1016.08 1016.09 1015.96 1015.93 1016.10 1016.28 1016.41 1016.41 1016.48 1016.66 1016.88
1006.56 1007.24 1008.57 1009.15 1009.88 1010.49 1010.84 1011.15 1011.41 1011.65 1011.60 1011.24 1010.98 1010.81 1010.80 1010.93 1010.68 1011.00 1011.51 1012.03 1012.51 1012.81 1012.96 1013.47 1013.97 1014.51 1014.79 1015.83 1015.77 1015.96 1016.10 1015.77 1015.82 1015.83 1015.95 1015.86 1015.91 1015.95 1016.09 1016.23 1016.21 1016.56 1016.79
1006.30 1007.19 1008.46 1009.20 1009.77 1010.20 1010.62 1010.98 1011.33 1011.44 1011.19 1010.98 1010.61 1010.42 1010.35 1010.53 1010.79 1010.99 1011.20 1011.63 1012.05 1012.38 1012.57 1013.15 1013.51 1014.17 1014.69 1015.08 1015.45 1015.93 1015.99 1015.90 1015.76 1015.57 1015.64 1015.42 1015.53 1015.51 1015.51 1015.64 1015.68 1015.82 1015.98
Wind_Speed
19 18 15 12 14 14 13 12 13 13 13 13 12 11 11 11 11 10 10 11 10 9 10 9 8 6 3 5 6 10 14 15 16 17 16 15 12 11 11 14 16 14 15
23 19 16 14 13 12 11 11 12 13 13 13 13 13 11 11 10 8 8 11 9 8 9 9 7 7 5 6 8 10 13 15 14 16 15 14 12 10 6 6 19 14 14
20 18 16 14 12 11 9 9 12 13 14 12 13 13 11 10 10 8 8 10 9 7 8 7 7 6 7 7 9 9 13 14 13 16 17 9 8 10 11 16 18 16 15
20 16 16 14 13 11 10 11 13 13 13 12 12 12 12 10 10 9 7 7 7 5 7 7 7 6 6 8 10 8 12 13 12 12 8 11 11 12 13 15 16 15 15
19 17 17 15 13 12 11 11 12 13 13 12 12 12 12 11 9 9 7 5 4 4 5 7 8 7 7 8 8 10 10 12 13 11 5 4 8 11 13 14 14 14 15
18 22 20 16 14 12 11 12 12 12 12 12 12 11 11 11 10 8 7 6 3 4 5 6 7 8 8 9 8 9 9 11 10 4 4 8 9 13 13 14 14 13 15
20 19 19 18 14 12 11 11 11 13 13 13 13 12 12 11 10 8 7 6 4 3 4 6 8 9 9 9 10 9 11 9 6 6 5 9 9 13 11 12 15 15 14
19 18 15 17 15 14 12 12 12 13 14 14 14 13 12 11 9 10 9 6 6 5 4 5 8 9 8 9 9 10 10 11 12 8 7 9 12 13 13 14 14 14 14
17 16 13 12 12 14 13 13 14 14 14 14 14 13 12 11 9 9 8 7 7 6 5 6 8 9 9 9 10 10 12 11 5 3 12 8 14 14 14 14 14 13 14
12 15 14 11 10 9 10 13 14 15 14 14 14 14 13 13 12 10 7 9 8 8 8 8 9 9 10 9 10 10 12 11 7 7 5 8 14 15 15 14 14 12 13
10 10 9 11 9 9 10 11 13 15 16 15 13 14 11 6 9 9 10 10 9 9 9 9 9 10 10 10 10 10 10 5 8 4 5 21 16 16 15 14 12 14 13
7 8 9 10 9 8 9 9 9 9 8 6 5 7 5 7 5 3 7 10 10 9 9 10 10 11 11 7 6 9 5 8 4 6 4 18 16 16 15 14 14 13 14
7 9 9 8 8 10 6 7 4 4 5 5 6 4 3 2 2 3 3 4 4 8 5 7 7 6 9 4 5 6 7 3 3 5 11 16 16 15 15 13 13 13 13
13 11 10 9 7 7 5 3 5 6 7 6 7 7 4 2 3 3 3 4 4 4 4 5 4 5 5 8 7 7 6 3 4 2 8 17 16 15 15 14 14 13 14
9 9 9 10 7 6 10 9 16 10 8 8 7 9 5 3 3 4 3 2 3 4 3 4 4 3 4 6 6 8 9 7 7 4 3 15 15 15 14 15 15 15 14
9 8 9 6 4 2 3 8 8 8 5 1 8 6 7 4 3 3 4 4 3 5 5 3 4 3 4 4 5 6 7 6 7 7 7 8 15 13 14 14 14 16 15
11 11 10 9 8 6 5 4 3 4 4 9 12 8 9 8 5 6 4 5 3 4 5 4 3 3 3 4 6 5 5 6 6 3 3 4 8 15 13 13 14 14 14
12 11 12 10 10 7 5 3 3 4 3 3 4 4 11 9 8 5 5 5 4 4 3 4 4 3 4 3 3 3 4 5 3 6 7 3 5 7 11 12 11 11 13
7 9 9 8 11 9 6 4 4 5 3 4 3 5 7 9 8 8 6 6 6 4 4 3 3 4 2 3 3 2 2 3 4 6 5 8 7 5 6 12 7 9 14
9 7 5 4 5 6 4 4 3 4 5 4 5 5 9 8 11 7 7 7 8 7 4 4 4 3 2 4 3 3 4 5 5 4 4 2 5 7 7 6 6 6 18
12 9 7 7 6 5 3 4 4 5 5 6 1 4 4 5 8 8 7 7 5 6 6 6 4 3 2 3 3 3 4 4 5 5 4 4 5 7 7 7 6 3 7
11 9 6 5 6 5 3 3 3 2 4 5 5 6 4 6 9 8 8 8 7 5 7 7 5 3 3 4 3 1 2 3 6 6 5 5 6 5 7 7 7 9 10
12 9 8 6 5 5 5 3 3 3 5 3 5 5 6 7 8 9 9 8 7 7 6 7 6 6 4 4 5 4 2 3 1 2 4 4 5 4 6 9 12 13 13
7 8 7 7 6 2 2 2 5 5 4 4 3 4 4 7 8 8 9 10 8 7 9 7 6 4 5 4 3 4 6 2 2 1 1 3 3 4 5 5 6 8 8
7 11 9 8 7 5 0 3 2 3 5 5 5 7 7 6 8 9 10 10 8 7 9 9 8 6 6 6 4 1 8 4 4 3 0 2 3 3 5 5 5 5 7
8 11 10 8 6 3 2 5 4 5 8 6 6 5 5 4 5 7 9 9 9 9 9 7 7 8 8 9 3 5 4 3 2 2 2 3 4 4 6 5 5 6 5
Wind_Direction
134 135 138 135 130 132 136 142 142 143 138 134 128 121 117 113 109 106 108 105 119 123 122 128 125 120 95 83 101 104 108 111 117 113 109 110 118 120 129 133 108 104 105
127 137 136 135 130 128 140 150 151 146 146 144 136 132 130 124 120 120 125 112 108 111 116 119 122 129 110 108 122 123 122 123 126 123 123 120 121 111 116 137 96 110 110
129 129 136 128 124 121 128 143 153 152 153 151 142 141 139 136 128 131 140 123 122 123 126 128 126 130 121 123 125 130 137 138 146 142 145 136 119 116 107 107 114 118 119
127 139 131 125 121 115 120 134 147 152 156 155 148 145 144 139 137 143 142 131 136 140 142 141 143 142 133 137 138 142 155 151 156 160 192 131 137 121 118 119 121 124 123
129 142 127 128 122 115 110 125 141 151 156 158 153 152 147 143 147 152 137 139 160 141 157 158 161 160 150 150 149 150 169 164 169 175 232 140 126 130 125 126 129 131 136
135 116 128 131 126 123 119 121 138 150 153 156 155 156 153 151 154 157 157 169 185 178 168 159 163 166 167 161 163 164 189 181 176 202 76 110 112 137 146 151 140 134 124
99 118 130 133 131 131 130 127 136 147 155 157 161 162 160 161 164 169 161 159 180 182 196 158 164 164 174 174 170 177 215 191 197 173 173 110 124 143 146 138 134 137 133
119 118 130 133 139 137 140 140 142 149 160 162 166 165 167 167 178 166 172 174 168 190 192 190 176 163 185 176 178 189 220 219 170 215 149 122 139 141 146 143 144 144 140
118 121 125 133 140 142 152 154 154 157 165 165 169 170 170 176 184 179 180 190 172 191 192 196 184 174 178 179 189 199 226 235 262 270 123 132 144 147 153 151 153 154 148
116 128 130 139 153 157 159 162 166 168 170 174 175 180 180 180 187 192 193 202 183 195 196 196 188 179 177 182 188 206 237 250 252 206 112 134 153 154 158 161 159 160 156
124 113 134 147 159 164 162 172 172 174 177 183 182 188 181 186 190 191 196 199 187 196 196 193 188 179 174 176 195 205 238 247 236 137 139 146 160 157 164 166 166 164 167
142 120 141 155 161 166 177 172 174 174 176 176 174 180 213 222 143 210 210 166 199 189 192 184 189 180 182 178 188 204 227 241 224 108 138 150 159 162 166 172 173 171 173
146 152 144 157 181 190 184 163 176 178 173 181 180 156 244 333 120 178 162 202 195 205 190 180 179 191 196 216 182 190 220 258 303 146 154 154 160 165 169 176 178 181 179
163 166 161 171 170 201 172 102 208 191 195 195 189 168 155 201 212 227 190 198 203 176 199 168 185 193 239 190 188 185 226 209 228 116 157 167 163 169 173 182 185 189 186
141 139 146 157 184 186 141 143 219 208 197 203 186 163 163 210 233 200 230 189 204 194 211 186 197 197 185 197 207 213 207 202 232 131 202 177 170 173 181 186 192 196 198
142 141 134 157 170 193 186 158 191 202 161 249 242 190 170 204 209 231 199 225 221 220 202 173 201 183 191 196 208 224 221 206 227 210 183 177 177 181 186 191 194 204 201
154 158 152 168 179 190 218 186 231 268 174 159 206 183 173 183 226 206 214 210 204 198 206 181 167 193 193 205 211 210 214 222 209 160 167 176 181 187 193 200 201 209 202
157 157 159 180 175 183 196 209 236 243 240 242 220 188 175 183 201 208 223 195 194 198 197 188 163 199 206 203 196 221 217 229 249 214 188 156 184 183 194 200 206 209 203
152 153 166 170 169 175 198 218 210 258 274 294 272 187 166 180 197 216 230 222 175 224 171 196 190 173 194 198 200 223 282 220 211 246 246 169 189 178 172 196 198 237 214
158 148 164 177 173 172 195 228 239 252 232 242 257 180 187 191 188 214 231 234 178 189 185 196 188 218 173 183 201 206 225 212 197 246 276 260 196 186 139 139 155 235 241
155 161 169 187 184 176 198 215 243 239 264 267 218 3 228 220 206 193 222 232 198 203 179 186 186 212 214 170 152 238 248 245 231 207 213 230 235 198 148 163 166 189 278
146 152 166 197 196 198 213 237 243 277 257 279 311 282 264 230 221 201 207 231 190 201 190 187 180 146 183 202 188 125 252 242 236 212 189 228 229 197 181 178 171 197 218
129 154 184 186 219 208 231 253 271 277 277 274 247 256 255 252 229 206 201 223 217 189 202 183 179 169 173 213 214 195 209 224 175 205 214 203 240 215 190 184 194 204 210
153 144 159 165 184 187 248 260 242 273 276 274 263 239 239 243 230 217 200 210 219 196 201 184 179 179 140 224 215 243 262 167 184 261 180 213 221 214 212 194 210 198 195
165 114 113 121 112 116 126 287 302 290 272 286 274 257 237 223 226 222 200 204 208 207 205 189 177 182 165 202 187 166 240 211 206 252 138 249 239 199 201 193 202 188 196
127 124 129 107 123 109 31 40 26 303 303 293 290 251 235 209 211 214 213 201 200 206 195 188 188 187 186 208 161 254 267 237 238 229 246 195 196 196 197 205 181 188 183